Hourly Weather Bolshie Prudy

Today, 2 August, Monday

Time Temperature Precipitation Wind Pressure Humidity
00:00 +22°C° 0 mm 3 mps 738 mmHg 53%
01:00 +22°C° 0 mm 3 mps 738 mmHg 54%
02:00 +23°C° 0 mm 2 mps 738 mmHg 57%
03:00 +21°C° 0 mm 2 mps 738 mmHg 62%
04:00 +21°C° 0 mm 2 mps 737 mmHg 67%
05:00 +21°C° 0 mm 3 mps 737 mmHg 72%
06:00 +24°C° 0 mm 3 mps 737 mmHg 64%
07:00 +26°C° 0 mm 4 mps 737 mmHg 57%
08:00 +29°C° 0 mm 4 mps 737 mmHg 49%
09:00 +30°C° 0 mm 5 mps 737 mmHg 44%
10:00 +33°C° 0 mm 6 mps 737 mmHg 39%
11:00 +34°C° 0 mm 7 mps 736 mmHg 33%
12:00 +34°C° 0 mm 7 mps 736 mmHg 34%
13:00 +34°C° 0 mm 6 mps 736 mmHg 35%
14:00 +34°C° 0 mm 6 mps 736 mmHg 35%
15:00 +34°C° 0 mm 6 mps 735 mmHg 36%
16:00 +33°C° 0 mm 5 mps 735 mmHg 37%
17:00 +33°C° 0 mm 5 mps 734 mmHg 38%
18:00 +29°C° 1 mm 5 mps 735 mmHg 51%
19:00 +24°C° 1 mm 6 mps 735 mmHg 65%
20:00 +21°C° 1 mm 7 mps 735 mmHg 78%
21:00 +20°C° 2.1 mm 6 mps 735 mmHg 82%
22:00 +20°C° 2.1 mm 4 mps 735 mmHg 86%
23:00 +19°C° 2.1 mm 3 mps 735 mmHg 89%

Tomorrow, 3 August, Tuesday

Time Temperature Precipitation Wind Pressure Humidity
00:00 +19°C° 0 mm 3 mps 735 mmHg 91%
01:00 +19°C° 0 mm 3 mps 736 mmHg 92%
02:00 +18°C° 0 mm 3 mps 736 mmHg 94%
03:00 +18°C° 0 mm 3 mps 736 mmHg 95%
04:00 +18°C° 0 mm 3 mps 736 mmHg 95%
05:00 +18°C° 0 mm 3 mps 736 mmHg 95%
06:00 +19°C° 0 mm 3 mps 737 mmHg 90%
07:00 +20°C° 0 mm 3 mps 737 mmHg 84%
08:00 +21°C° 0 mm 4 mps 738 mmHg 78%
09:00 +22°C° 0.1 mm 4 mps 738 mmHg 73%
10:00 +22°C° 0.1 mm 4 mps 738 mmHg 68%
11:00 +23°C° 0.1 mm 5 mps 739 mmHg 63%
12:00 +23°C° 0 mm 5 mps 739 mmHg 61%
13:00 +23°C° 0 mm 4 mps 739 mmHg 59%
14:00 +23°C° 0 mm 4 mps 739 mmHg 56%
15:00 +23°C° 0 mm 4 mps 739 mmHg 56%
16:00 +23°C° 0 mm 4 mps 739 mmHg 56%
17:00 +23°C° 0 mm 4 mps 739 mmHg 56%
18:00 +22°C° 0 mm 3 mps 739 mmHg 61%
19:00 +20°C° 0 mm 3 mps 739 mmHg 65%
20:00 +19°C° 0 mm 2 mps 740 mmHg 70%
21:00 +18°C° 0 mm 2 mps 740 mmHg 72%
22:00 +18°C° 0 mm 2 mps 740 mmHg 74%
23:00 +17°C° 0 mm 2 mps 740 mmHg 77%

Day after tomorrow, 4 August, Wednesday

Time Temperature Precipitation Wind Pressure Humidity
00:00 +17°C° 0 mm 2 mps 741 mmHg 74%
01:00 +17°C° 0 mm 2 mps 741 mmHg 72%
02:00 +18°C° 0 mm 1 mps 741 mmHg 70%
03:00 +17°C° 0 mm 2 mps 741 mmHg 69%
04:00 +17°C° 0 mm 2 mps 741 mmHg 68%
05:00 +17°C° 0 mm 2 mps 742 mmHg 67%
06:00 +18°C° 0 mm 2 mps 742 mmHg 63%
07:00 +19°C° 0 mm 2 mps 742 mmHg 58%
08:00 +21°C° 0 mm 2 mps 742 mmHg 54%
09:00 +22°C° 0 mm 3 mps 742 mmHg 49%
10:00 +24°C° 0 mm 3 mps 742 mmHg 45%
11:00 +25°C° 0 mm 4 mps 743 mmHg 40%
12:00 +25°C° 0 mm 4 mps 742 mmHg 39%
13:00 +26°C° 0 mm 4 mps 742 mmHg 37%
14:00 +26°C° 0 mm 4 mps 742 mmHg 36%
15:00 +25°C° 0 mm 4 mps 742 mmHg 39%
16:00 +25°C° 0 mm 3 mps 742 mmHg 43%
17:00 +24°C° 0 mm 3 mps 742 mmHg 46%
18:00 +22°C° 0 mm 3 mps 743 mmHg 51%
19:00 +20°C° 0 mm 2 mps 743 mmHg 57%
20:00 +18°C° 0 mm 2 mps 743 mmHg 62%
21:00 +18°C° 0 mm 2 mps 743 mmHg 63%
22:00 +17°C° 0 mm 2 mps 743 mmHg 65%
23:00 +18°C° 0 mm 1 mps 743 mmHg 66%

5 August, Thursday

Time Temperature Precipitation Wind Pressure Humidity
00:00 +16°C° 0 mm 1 mps 743 mmHg 68%
01:00 +16°C° 0 mm 1 mps 743 mmHg 69%
02:00 +14°C° 0 mm 0 mps 743 mmHg 71%
03:00 +15°C° 0 mm 0 mps 743 mmHg 71%
04:00 +15°C° 0 mm 0 mps 744 mmHg 71%
05:00 +15°C° 0 mm 0 mps 744 mmHg 71%
06:00 +19°C° 0 mm 1 mps 744 mmHg 64%
07:00 +21°C° 0 mm 1 mps 743 mmHg 57%
08:00 +23°C° 0 mm 1 mps 743 mmHg 51%
09:00 +24°C° 0 mm 2 mps 743 mmHg 46%
10:00 +25°C° 0 mm 2 mps 743 mmHg 42%
11:00 +26°C° 0 mm 2 mps 743 mmHg 38%
12:00 +27°C° 0 mm 3 mps 743 mmHg 37%
13:00 +28°C° 0 mm 3 mps 742 mmHg 36%
14:00 +29°C° 0 mm 3 mps 742 mmHg 34%
15:00 +28°C° 0 mm 3 mps 742 mmHg 37%
16:00 +28°C° 0 mm 2 mps 741 mmHg 39%
17:00 +28°C° 0 mm 2 mps 741 mmHg 41%
18:00 +27°C° 0 mm 2 mps 741 mmHg 43%
19:00 +25°C° 0 mm 3 mps 740 mmHg 44%
20:00 +24°C° 0 mm 3 mps 740 mmHg 46%
21:00 +23°C° 0 mm 4 mps 740 mmHg 44%
22:00 +23°C° 0 mm 4 mps 740 mmHg 43%
23:00 +23°C° 0 mm 5 mps 740 mmHg 42%

6 August, Friday

Time Temperature Precipitation Wind Pressure Humidity
00:00 +23°C° 0 mm 5 mps 739 mmHg 43%
01:00 +22°C° 0 mm 4 mps 739 mmHg 45%
02:00 +22°C° 0 mm 4 mps 739 mmHg 46%
03:00 +21°C° 0 mm 4 mps 739 mmHg 48%
04:00 +21°C° 0 mm 4 mps 739 mmHg 51%
05:00 +21°C° 0 mm 4 mps 739 mmHg 54%
06:00 +21°C° 0 mm 3 mps 739 mmHg 54%
07:00 +21°C° 0 mm 3 mps 739 mmHg 55%
08:00 +22°C° 0 mm 3 mps 739 mmHg 56%
09:00 +24°C° 0 mm 3 mps 739 mmHg 51%
10:00 +26°C° 0 mm 4 mps 739 mmHg 47%
11:00 +28°C° 0 mm 4 mps 739 mmHg 42%
12:00 +30°C° 0 mm 4 mps 739 mmHg 39%
13:00 +32°C° 0 mm 4 mps 739 mmHg 35%
14:00 +34°C° 0 mm 4 mps 738 mmHg 32%
15:00 +33°C° 0 mm 4 mps 738 mmHg 34%
16:00 +33°C° 0 mm 3 mps 738 mmHg 35%
17:00 +32°C° 0 mm 2 mps 738 mmHg 37%
18:00 +30°C° 0 mm 3 mps 738 mmHg 39%
19:00 +28°C° 0 mm 3 mps 738 mmHg 41%
20:00 +26°C° 0 mm 3 mps 738 mmHg 43%
21:00 +25°C° 0 mm 3 mps 738 mmHg 43%
22:00 +24°C° 0 mm 3 mps 738 mmHg 44%
23:00 +24°C° 0 mm 3 mps 738 mmHg 44%

7 August, Saturday

Time Temperature Precipitation Wind Pressure Humidity
00:00 +22°C° 0 mm 3 mps 738 mmHg 45%
01:00 +22°C° 0 mm 3 mps 738 mmHg 46%
02:00 +21°C° 0 mm 3 mps 738 mmHg 47%
03:00 +21°C° 0 mm 3 mps 738 mmHg 48%
04:00 +21°C° 0 mm 3 mps 738 mmHg 49%
05:00 +21°C° 0 mm 3 mps 738 mmHg 50%
06:00 +23°C° 0 mm 4 mps 738 mmHg 45%
07:00 +26°C° 0 mm 4 mps 738 mmHg 40%
08:00 +28°C° 0 mm 5 mps 738 mmHg 35%
09:00 +30°C° 0 mm 5 mps 738 mmHg 32%
10:00 +32°C° 0 mm 4 mps 739 mmHg 29%
11:00 +34°C° 0 mm 4 mps 739 mmHg 26%
12:00 +35°C° 0 mm 4 mps 738 mmHg 24%
13:00 +36°C° 0 mm 5 mps 738 mmHg 23%
14:00 +36°C° 0 mm 5 mps 738 mmHg 21%
15:00 +36°C° 0 mm 4 mps 738 mmHg 24%
16:00 +35°C° 0 mm 4 mps 738 mmHg 27%
17:00 +35°C° 0 mm 3 mps 738 mmHg 29%
18:00 +32°C° 0 mm 4 mps 738 mmHg 40%
19:00 +28°C° 0 mm 5 mps 739 mmHg 50%
20:00 +26°C° 0 mm 5 mps 739 mmHg 60%
21:00 +25°C° 0 mm 5 mps 739 mmHg 67%
22:00 +23°C° 0 mm 4 mps 740 mmHg 74%
23:00 +24°C° 0 mm 3 mps 740 mmHg 81%
Show more

We Need Your Consent

Meteoprog and our Service Providers may store and access personal data such as cookies, device identifiers or other similar technologies on your device and process such data to personalise content and ads, as well as provide social media features and to analyse the traffic.

  • Store and/or access information on your device

    Cookies, device identifiers or other information can be stored or accessed on your device for the purposes indicated above.

  • Personalised ads and content, ad and content measurement, audience insights, and products development

    Ads and content can be personalised based on a profile. More data can be added to better personalise ads and content. Ad and content performance can be measured. Insights about the audience who saw the ads and content can be derived. Such data can be used to develop or improve user’s experience, systems and software.

By clicking ‘I Agree’ you will allow the use of indicated cookies, device identifiers, web beacons or other similar technologies. Your settings can be changed in the browser on your device.

For certain purposes, legitimate interests may be relied on, rather than consent. You can read more about this in our Privacy and Cookie Policy.